Pendleton, OR

3:21 AM PDT on March 26, 2017 (GMT -0700)
Eastern Oreg Regional At Pendleton

Weather History for KPDT - May, 2014

Change the Weather History Date:

Monday, May 12, 2014

  Actual Average Record
Temperature  
Mean Temperature 55 °F 57 °F  
Max Temperature 73 °F 69 °F 102 °F (1931)
Min Temperature 36 °F 45 °F 29 °F (1916)
Degree Days  
Heating Degree Days 10 9  
Month to date heating degree days 104 121  
Since 1 July heating degree days 5382 5068  
Cooling Degree Days 0 1  
Month to date cooling degree days 3 3  
Year to date cooling degree days 3 4  
Growing Degree Days 4 (Base 50)    
Moisture  
Dew Point 30 °F    
Average Humidity 51    
Maximum Humidity 85    
Minimum Humidity 16    
Precipitation  
Precipitation 0.00 in 0.04 in 0.45 in (2015)
Month to date precipitation 0.49 0.50  
Year to date precipitation 6.13 5.56  
Snow  
Snow 0.00 in 0.00 in 0.00 in (2002)
Month to date snowfall 0.0 0.0  
Year to date snowfall 15.2 7.7  
Since 1 July snowfall 21.7 15.2  
Snow Depth 0.00 in    
Sea Level Pressure  
Sea Level Pressure 30.32 in    
Wind  
Wind Speed 8 mph (East)    
Max Wind Speed 14 mph    
Max Gust Speed 19 mph    
Visibility 10 miles    
Events      
T = Trace of Precipitation, MM = Missing Value Source: NWS Daily Summary

Daily Weather History Graph

Daily Weather History Graph

Search for Another Location

Airport or City:

Trip Planner

Search our weather history database for the weather conditions in past years. The results will help you decide how hot, cold, wet, or windy it might be!

Date:

Astronomy

May. 12, 2014 Rise Set
Actual Time 5:27 AM PDT 8:16 PM PDT
Civil Twilight 4:53 AM PDT 8:51 PM PDT
Nautical Twilight 4:09 AM PDT 9:34 PM PDT
Astronomical Twilight 3:18 AM PDT 10:26 PM PDT
Moon 6:13 PM PDT (5/12) 4:17 AM PDT (5/12)
Length of Visible Light 15h 57m
Length of Day
14h 48m
Waxing Gibbous, 95% of the Moon is Illuminated
May 12
Waxing Gibbous
May 14
Full
May 21
Last Quarter
May 28
New
Jun 5
First Quarter

Hourly Weather History & Observations

Time (PDT) Temp. Windchill Dew Point Humidity Pressure Visibility Wind Dir Wind Speed Gust Speed Precip Events Conditions
12:53 AM 41.0 °F 38.0 °F 34.0 °F 76% 30.28 in 10.0 mi ESE 4.6 mph - N/A   Clear
1:53 AM 42.1 °F 35.7 °F 36.0 °F 79% 30.29 in 10.0 mi SE 11.5 mph - N/A   Clear
2:53 AM 42.1 °F 36.6 °F 36.0 °F 79% 30.32 in 10.0 mi SSE 9.2 mph - N/A   Clear
3:53 AM 41.0 °F 35.8 °F 35.1 °F 79% 30.33 in 10.0 mi SE 8.1 mph - N/A   Clear
4:53 AM 42.1 °F 39.2 °F 34.0 °F 73% 30.33 in 10.0 mi ESE 4.6 mph - N/A   Clear
5:53 AM 37.9 °F 33.5 °F 33.1 °F 83% 30.33 in 10.0 mi ESE 5.8 mph - N/A   Clear
6:53 AM 44.6 °F 40.7 °F 35.6 °F 71% 30.35 in 10.0 mi SE 6.9 mph - N/A   Clear
7:53 AM 46.9 °F - 37.0 °F 68% 30.35 in 10.0 mi SE 4.6 mph - N/A   Clear
8:53 AM 55.9 °F - 37.0 °F 49% 30.36 in 10.0 mi East 4.6 mph - N/A   Clear
9:53 AM 62.1 °F - 26.1 °F 25% 30.38 in 10.0 mi NNE 5.8 mph - N/A   Clear
10:53 AM 63.0 °F - 27.0 °F 26% 30.36 in 10.0 mi NE 8.1 mph 16.1 mph N/A   Clear
11:53 AM 64.9 °F - 25.0 °F 22% 30.35 in 10.0 mi Variable 5.8 mph - N/A   Clear
12:53 PM 66.0 °F - 27.0 °F 23% 30.35 in 10.0 mi Variable 5.8 mph - N/A   Clear
1:53 PM 68.0 °F - 26.1 °F 21% 30.33 in 10.0 mi NNE 9.2 mph - N/A   Clear
2:53 PM 70.0 °F - 23.0 °F 17% 30.32 in 10.0 mi North 8.1 mph - N/A   Clear
3:53 PM 71.1 °F - 24.1 °F 17% 30.31 in 10.0 mi North 10.4 mph - N/A   Clear
4:53 PM 72.0 °F - 24.1 °F 17% 30.29 in 10.0 mi Variable 6.9 mph - N/A   Clear
5:53 PM 71.1 °F - 23.0 °F 16% 30.28 in 10.0 mi ENE 8.1 mph - N/A   Clear
6:53 PM 70.0 °F - 26.1 °F 19% 30.27 in 10.0 mi NE 11.5 mph - N/A   Clear
7:53 PM 62.6 °F - 30.2 °F 30% 30.30 in 10.0 mi NE 9.2 mph - N/A   Clear
8:53 PM 55.0 °F - 30.0 °F 38% 30.30 in 10.0 mi NE 11.5 mph - N/A   Clear
9:53 PM 53.1 °F - 30.0 °F 41% 30.30 in 10.0 mi SSE 6.9 mph - N/A   Clear
10:53 PM 48.2 °F - 30.2 °F 50% 30.32 in 10.0 mi ESE 5.8 mph - N/A   Clear
11:53 PM 46.9 °F - 33.1 °F 59% 30.31 in 10.0 mi ESE 6.9 mph - N/A   Clear